Terug naar catalogus

STARLINK-32556

ActiefCommunicatieVLEO
NORAD 61858·PAYLOAD·🇺🇸 United States

Gelanceerd Nov 7, 2024 vanaf Cape Canaveral Space Force Station

Loading…

Volgende Passages (komende 24 uur)

TLE

VersSource: CelesTrak SupGP

Epoch: Sep 15, 2026, 03:23 UTC

1 61858C 24202P   26258.14145833 -.00038884  00000+0 -14075-2 0  2589
2 61858  43.0006 247.9956 0001178 261.4052  62.4036 15.27617860    17

Volg STARLINK-32556 in realtime met AllMySat

Download on the App Store